OPS 4682 DEB, 29061

Orbit data source: Space-Track

OPS 4682 DEB, 29061 is space debris in LEO originally from a launch on Sat, 03 Apr 1965 UTC launched from the Air Force Western Test Range (AFWTR). Debris objects in space refer to the collection of defunct objects orbiting the Earth. Examples of debris include non-operational satellites, rocket bodies, and fragments generated from explosions, collisions, or faulty payload assembly.

Loading next visibility...
Identifier
29061, 1965-027BL
Orbit
LEO
Country
Flag of USUS
Related business
Manufacturer
Unknown
Mission
Spacecraft
Bus & Motor
Unknown
Mass
Unknown
Launch date (UTC)
1965-04-03 (61 years ago)
Launch vehicle
Unknown
Launch site
Air Force Western Test Range (AFWTR)
Object type
Payload
Rocket body
Debris
Shape & HBR
Unknown shape, 0.1 m
Radar Cross Section
Medium (>0.1 m² and <1 m²)

Expand to show TLE details & history
Last TLE update: 12 hours ago

TLE from 12 hours ago
0 OPS 4682 DEB
1 29061U 65027BL  26235.83702906  .00000090  00000-0  29534-3 0  9996
2 29061  90.2566  19.1721 0031969  43.3546 112.9479 12.94694004237152
Epoch: 2026-08-23T20:05Z
TLE epoch observation values (Epoch: 2026-08-23T20:05:19.310Z)
Latitude
23.37789°
Longitude
-74.17535°
Altitude
1,295.384 km
Speed
7.206 km/s
True Right ascension
13h 17m 07s
True Declination
23° 15' 42"
Sunlit
Object was in daylight at epoch
Visualization orbit readout
Latitude
Unknown
Longitude
Unknown
Altitude
Unknown
Speed
Unknown
Apparent Right ascension
Unknown
Apparent Declination
Unknown
Sunlit
N/A
Visualization observer readout
Local Sidereal Time
22:45:57
Azimuth
Unknown
Elevation
Unknown
Doppler factor
Unknown
Orbital elements
Apogee altitude
1,304.564 km
Perigee altitude
1,255.599 km
Semi-major axis
7,658.219 km
Eccentricity
0.0032
Inclination
90.2566°
RAAN
19.1721°
Arg. of periapsis
43.3546°
True anomaly
113.28472°
Mean anomaly
112.9479°
Eccentric anomaly
113.11636°
Mean motion
3.23856 °/min
Orbital period
111.16 mins
BSTAR
0.00029534
Loading maneuver chart data...
Computing Atmospheric mass density...
Loading historical data...
Loading historical data...
Loading historical data...
Loading historical data...
Loading historical data...
Loading historical data...
Loading historical data...

Documentation

Showing up to 5 results
|